Time,TemperatureF,DewpointF,PressureIn,WindDirection,WindDirectionDegrees,WindSpeedMPH,WindSpeedGustMPH,Humidity,HourlyPrecipIn,Conditions,Clouds,dailyrainin,SoftwareType,DateUTC
2013-05-09 00:03:00,58.0,-99.9,-100.00,SW,230,3.0,4.0,-999,0.00,,,-99.99,,2013-05-09 04:03:00,
2013-05-09 00:13:00,58.0,-99.9,-100.00,ESE,105,1.0,2.0,-999,0.00,,,-99.99,,2013-05-09 04:13:00,
2013-05-09 00:23:00,59.0,58.0,-100.00,SE,140,2.0,6.0,99,0.00,,,-99.99,,2013-05-09 04:23:00,
2013-05-09 00:33:00,58.0,58.0,-100.00,West,270,4.0,4.0,99,0.00,,,-99.99,,2013-05-09 04:33:00,
2013-05-09 00:43:00,58.0,-99.9,-100.00,WSW,255,2.0,3.0,-999,0.00,,,-99.99,,2013-05-09 04:43:00,
2013-05-09 00:53:00,57.0,-99.9,-100.00,SW,230,1.0,3.0,-999,0.00,,,-99.99,,2013-05-09 04:53:00,
2013-05-09 01:02:00,56.0,-99.9,-100.00,East,95,2.0,4.0,-999,0.00,,,-99.99,,2013-05-09 05:02:00,
2013-05-09 01:12:00,56.0,-99.9,-100.00,West,260,2.0,2.0,-999,0.00,,,-99.99,,2013-05-09 05:12:00,
2013-05-09 01:22:00,56.0,-99.9,-100.00,West,260,1.0,3.0,-999,0.00,,,-99.99,,2013-05-09 05:22:00,
2013-05-09 01:32:00,56.0,-99.9,-100.00,SSW,205,1.0,3.0,-999,0.00,,,-99.99,,2013-05-09 05:32:00,
2013-05-09 01:42:00,57.0,57.0,-100.00,WSW,245,0.0,3.0,99,0.00,,,-99.99,,2013-05-09 05:42:00,
2013-05-09 01:51:00,56.0,56.0,-100.00,SW,220,0.0,0.0,99,0.00,,,-99.99,,2013-05-09 05:51:00,
2013-05-09 02:02:00,56.0,-99.9,-100.00,SW,215,2.0,4.0,-999,0.00,,,-99.99,,2013-05-09 06:02:00,
2013-05-09 02:12:00,55.0,-99.9,-100.00,WSW,240,2.0,4.0,-999,0.00,,,-99.99,,2013-05-09 06:12:00,
2013-05-09 02:22:00,55.0,-99.9,-100.00,WSW,240,2.0,4.0,-999,0.00,,,-99.99,,2013-05-09 06:22:00,
2013-05-09 02:32:00,55.0,-99.9,-100.00,SW,225,1.0,2.0,-999,0.00,,,-99.99,,2013-05-09 06:32:00,
2013-05-09 02:42:00,54.0,-99.9,-100.00,SSW,205,1.0,2.0,-999,0.00,,,-99.99,,2013-05-09 06:42:00,
2013-05-09 02:52:00,54.0,-99.9,-100.00,SW,235,1.0,1.0,-999,0.00,,,-99.99,,2013-05-09 06:52:00,
2013-05-09 03:02:00,54.0,-99.9,-100.00,SW,220,1.0,4.0,-999,0.00,,,-99.99,,2013-05-09 07:02:00,
2013-05-09 03:12:00,55.0,-99.9,-100.00,SW,235,2.0,2.0,-999,0.00,,,-99.99,,2013-05-09 07:12:00,
2013-05-09 03:22:00,54.0,-99.9,-100.00,West,260,1.0,2.0,-999,0.00,,,-99.99,,2013-05-09 07:22:00,
2013-05-09 03:32:00,53.0,-99.9,-100.00,West,260,1.0,2.0,-999,0.00,,,-99.99,,2013-05-09 07:32:00,
2013-05-09 03:43:00,53.0,-99.9,-100.00,West,260,1.0,2.0,-999,0.00,,,-99.99,,2013-05-09 07:43:00,
2013-05-09 03:52:00,53.0,-99.9,-100.00,WSW,240,2.0,4.0,-999,0.00,,,-99.99,,2013-05-09 07:52:00,
2013-05-09 04:02:00,54.0,-99.9,-100.00,SW,220,2.0,3.0,-999,0.00,,,-99.99,,2013-05-09 08:02:00,
2013-05-09 04:11:00,54.0,-99.9,-100.00,SW,220,1.0,2.0,-999,0.00,,,-99.99,,2013-05-09 08:11:00,
2013-05-09 04:22:00,54.0,-99.9,-100.00,SW,215,1.0,2.0,-999,0.00,,,-99.99,,2013-05-09 08:22:00,
2013-05-09 04:32:00,54.0,-99.9,-100.00,SW,235,1.0,2.0,-999,0.00,,,-99.99,,2013-05-09 08:32:00,
2013-05-09 04:42:00,54.0,-99.9,-100.00,SW,235,0.0,1.0,-999,0.00,,,-99.99,,2013-05-09 08:42:00,
2013-05-09 04:52:00,53.0,-99.9,-100.00,SW,215,1.0,2.0,-999,0.00,,,-99.99,,2013-05-09 08:52:00,
2013-05-09 05:02:00,53.0,-99.9,-100.00,SSW,210,1.0,2.0,-999,0.00,,,-99.99,,2013-05-09 09:02:00,
2013-05-09 05:12:00,53.0,-99.9,-100.00,SSW,210,1.0,2.0,-999,0.00,,,-99.99,,2013-05-09 09:12:00,
2013-05-09 05:22:00,53.0,-99.9,-100.00,SSW,210,1.0,2.0,-999,0.00,,,-99.99,,2013-05-09 09:22:00,
2013-05-09 05:32:00,53.0,-99.9,-100.00,SW,220,0.0,1.0,-999,0.00,,,-99.99,,2013-05-09 09:32:00,
2013-05-09 05:43:00,53.0,-99.9,-100.00,SSE,165,0.0,0.0,-999,0.00,,,-99.99,,2013-05-09 09:43:00,
2013-05-09 05:53:00,52.0,-99.9,-100.00,ESE,120,2.0,3.0,-999,0.00,,,-99.99,,2013-05-09 09:53:00,
2013-05-09 06:03:00,52.0,-99.9,-100.00,ESE,120,1.0,3.0,-999,0.00,,,-99.99,,2013-05-09 10:03:00,
2013-05-09 06:12:00,52.0,-99.9,-100.00,South,190,0.0,7.0,-999,0.00,,,-99.99,,2013-05-09 10:12:00,
2013-05-09 06:23:00,52.0,-99.9,-100.00,SSW,210,0.0,1.0,-999,0.00,,,-99.99,,2013-05-09 10:23:00,
2013-05-09 06:33:00,52.0,-99.9,-100.00,SSE,165,1.0,4.0,-999,0.00,,,-99.99,,2013-05-09 10:33:00,
2013-05-09 06:42:00,52.0,-99.9,-100.00,SSE,155,0.0,7.0,-999,0.00,,,-99.99,,2013-05-09 10:42:00,
2013-05-09 06:53:00,51.0,-99.9,-100.00,SSW,205,1.0,6.0,-999,0.00,,,-99.99,,2013-05-09 10:53:00,
2013-05-09 07:03:00,52.0,-99.9,-100.00,SW,230,1.0,4.0,-999,0.00,,,-99.99,,2013-05-09 11:03:00,
2013-05-09 07:12:00,52.0,-99.9,-100.00,SW,220,1.0,2.0,-999,0.00,,,-99.99,,2013-05-09 11:12:00,
2013-05-09 07:23:00,52.0,-99.9,-100.00,SW,220,1.0,2.0,-999,0.00,,,-99.99,,2013-05-09 11:23:00,
2013-05-09 07:32:00,52.0,-99.9,-100.00,SW,220,1.0,2.0,-999,0.00,,,-99.99,,2013-05-09 11:32:00,
2013-05-09 07:42:00,54.0,-99.9,-100.00,SW,215,1.0,2.0,-999,0.00,,,-99.99,,2013-05-09 11:42:00,
2013-05-09 07:52:00,54.0,-99.9,-100.00,SSW,210,2.0,2.0,-999,0.00,,,-99.99,,2013-05-09 11:52:00,
2013-05-09 08:02:00,55.0,-99.9,-100.00,SW,215,2.0,3.0,-999,0.00,,,-99.99,,2013-05-09 12:02:00,
2013-05-09 08:12:00,56.0,-99.9,-100.00,SW,215,2.0,3.0,-999,0.00,,,-99.99,,2013-05-09 12:12:00,
2013-05-09 08:22:00,57.0,-99.9,-100.00,SW,220,3.0,4.0,-999,0.00,,,-99.99,,2013-05-09 12:22:00,
2013-05-09 08:32:00,59.0,-99.9,-100.00,SW,235,2.0,5.0,-999,0.00,,,-99.99,,2013-05-09 12:32:00,
2013-05-09 08:42:00,61.0,60.0,-100.00,West,270,2.0,3.0,94,0.00,,,-99.99,,2013-05-09 12:42:00,
2013-05-09 08:52:00,62.0,57.0,-100.00,WSW,255,3.0,4.0,84,0.00,,,-99.99,,2013-05-09 12:52:00,
2013-05-09 09:01:00,64.0,57.0,-100.00,WSW,240,2.0,4.0,79,0.00,,,-99.99,,2013-05-09 13:01:00,
2013-05-09 09:12:00,64.0,57.0,-100.00,WSW,240,2.0,4.0,79,0.00,,,-99.99,,2013-05-09 13:12:00,
2013-05-09 09:22:00,65.0,58.0,-100.00,WSW,240,3.0,4.0,77,0.00,,,-99.99,,2013-05-09 13:22:00,
2013-05-09 09:32:00,65.0,57.0,-100.00,SW,235,4.0,4.0,74,0.00,,,-99.99,,2013-05-09 13:32:00,
2013-05-09 09:42:00,65.0,57.0,-100.00,SW,235,4.0,4.0,74,0.00,,,-99.99,,2013-05-09 13:42:00,
2013-05-09 09:52:00,68.0,58.0,-100.00,WSW,240,4.0,6.0,70,0.00,,,-99.99,,2013-05-09 13:52:00,
2013-05-09 10:02:00,69.0,56.0,-100.00,SW,230,5.0,7.0,64,0.00,,,-99.99,,2013-05-09 14:02:00,
2013-05-09 10:11:00,69.0,56.0,-100.00,WSW,245,4.0,7.0,62,0.00,,,-99.99,,2013-05-09 14:11:00,
2013-05-09 10:22:00,70.0,56.0,-100.00,WSW,255,3.0,6.0,62,0.00,,,-99.99,,2013-05-09 14:22:00,
2013-05-09 10:32:00,71.0,56.0,-100.00,SW,225,4.0,6.0,59,0.00,,,-99.99,,2013-05-09 14:32:00,
2013-05-09 10:42:00,71.0,54.0,-100.00,WSW,240,4.0,6.0,54,0.00,,,-99.99,,2013-05-09 14:42:00,
2013-05-09 10:52:00,73.0,55.0,-100.00,WSW,255,4.0,6.0,54,0.00,,,-99.99,,2013-05-09 14:52:00,
2013-05-09 11:01:00,73.0,54.0,-100.00,SW,215,2.0,6.0,51,0.00,,,-99.99,,2013-05-09 15:01:00,
2013-05-09 11:11:00,74.0,52.0,-100.00,SW,225,2.0,6.0,45,0.00,,,-99.99,,2013-05-09 15:11:00,
2013-05-09 11:22:00,73.0,52.0,-100.00,WSW,240,4.0,7.0,46,0.00,,,-99.99,,2013-05-09 15:22:00,
2013-05-09 11:33:00,74.0,50.0,-100.00,SW,220,3.0,7.0,43,0.00,,,-99.99,,2013-05-09 15:33:00,
2013-05-09 11:43:00,74.0,50.0,-100.00,WSW,245,4.0,7.0,42,0.00,,,-99.99,,2013-05-09 15:43:00,
2013-05-09 11:53:00,74.0,50.0,-100.00,WSW,245,4.0,7.0,42,0.00,,,-99.99,,2013-05-09 15:53:00,
2013-05-09 12:03:00,76.0,51.0,-100.00,SSW,210,6.0,9.0,41,0.00,,,-99.99,,2013-05-09 16:03:00,
2013-05-09 12:12:00,76.0,50.0,-100.00,South,180,1.0,9.0,40,0.00,,,-99.99,,2013-05-09 16:12:00,
2013-05-09 12:23:00,76.0,51.0,-100.00,SSW,205,1.0,4.0,41,0.00,,,-99.99,,2013-05-09 16:23:00,
2013-05-09 12:33:00,76.0,48.0,-100.00,SSW,210,6.0,9.0,36,0.00,,,-99.99,,2013-05-09 16:33:00,
2013-05-09 12:42:00,77.0,47.0,-100.00,SW,215,2.0,7.0,34,0.00,,,-99.99,,2013-05-09 16:42:00,
2013-05-09 12:52:00,77.0,47.0,-100.00,SSW,200,6.0,11.0,34,0.00,,,-99.99,,2013-05-09 16:52:00,
2013-05-09 13:02:00,76.0,45.0,-100.00,SW,220,3.0,11.0,32,0.00,,,-99.99,,2013-05-09 17:02:00,
2013-05-09 13:12:00,77.0,46.0,-100.00,SSW,200,2.0,10.0,33,0.00,,,-99.99,,2013-05-09 17:12:00,
2013-05-09 13:21:00,76.0,47.0,-100.00,SSW,205,7.0,10.0,35,0.00,,,-99.99,,2013-05-09 17:21:00,
2013-05-09 13:32:00,78.0,47.0,-100.00,SSW,195,4.0,11.0,33,0.00,,,-99.99,,2013-05-09 17:32:00,
2013-05-09 13:42:00,77.0,44.0,-100.00,SW,220,7.0,10.0,31,0.00,,,-99.99,,2013-05-09 17:42:00,
2013-05-09 13:55:00,78.0,45.0,-100.00,SSW,195,9.0,12.0,30,0.00,,,-99.99,,2013-05-09 17:55:00,
2013-05-09 14:01:00,77.0,44.0,-100.00,SW,225,3.0,10.0,31,0.00,,,-99.99,,2013-05-09 18:01:00,
2013-05-09 14:12:00,78.0,43.0,-100.00,SW,220,3.0,11.0,29,0.00,,,-99.99,,2013-05-09 18:12:00,
2013-05-09 14:21:00,80.0,42.0,-100.00,South,180,7.0,13.0,26,0.00,,,-99.99,,2013-05-09 18:21:00,
2013-05-09 14:32:00,78.0,40.0,-100.00,SW,215,6.0,14.0,25,0.00,,,-99.99,,2013-05-09 18:32:00,
2013-05-09 14:42:00,78.0,40.0,-100.00,SW,220,11.0,16.0,25,0.00,,,-99.99,,2013-05-09 18:42:00,
2013-05-09 14:52:00,79.0,38.0,-100.00,SW,225,6.0,12.0,22,0.00,,,-99.99,,2013-05-09 18:52:00,
2013-05-09 15:01:00,79.0,37.0,-100.00,WSW,240,10.0,15.0,21,0.00,,,-99.99,,2013-05-09 19:01:00,
2013-05-09 15:12:00,79.0,37.0,-100.00,SW,230,5.0,13.0,21,0.00,,,-99.99,,2013-05-09 19:12:00,
2013-05-09 15:21:00,79.0,37.0,-100.00,SW,230,4.0,12.0,21,0.00,,,-99.99,,2013-05-09 19:21:00,
2013-05-09 15:32:00,79.0,37.0,-100.00,SW,230,4.0,11.0,21,0.00,,,-99.99,,2013-05-09 19:32:00,
2013-05-09 15:41:00,79.0,37.0,-100.00,SW,230,4.0,11.0,21,0.00,,,-99.99,,2013-05-09 19:41:00,
2013-05-09 15:52:00,80.0,39.0,-100.00,SW,215,9.0,16.0,23,0.00,,,-99.99,,2013-05-09 19:52:00,
2013-05-09 16:01:00,80.0,39.0,-100.00,SW,230,6.0,11.0,23,0.00,,,-99.99,,2013-05-09 20:01:00,
2013-05-09 16:11:00,80.0,39.0,-100.00,SW,230,6.0,11.0,23,0.00,,,-99.99,,2013-05-09 20:11:00,
2013-05-09 16:22:00,80.0,42.0,-100.00,SSW,210,7.0,13.0,26,0.00,,,-99.99,,2013-05-09 20:22:00,
2013-05-09 16:32:00,80.0,41.0,-100.00,South,180,9.0,12.0,24,0.00,,,-99.99,,2013-05-09 20:32:00,
2013-05-09 16:42:00,81.0,42.0,-100.00,SSW,205,7.0,12.0,25,0.00,,,-99.99,,2013-05-09 20:42:00,
2013-05-09 16:52:00,80.0,42.0,-100.00,SW,220,9.0,12.0,26,0.00,,,-99.99,,2013-05-09 20:52:00,
2013-05-09 17:02:00,79.0,41.0,-100.00,SW,220,3.0,9.0,25,0.00,,,-99.99,,2013-05-09 21:02:00,
2013-05-09 17:12:00,79.0,45.0,-100.00,SW,215,9.0,14.0,29,0.00,,,-99.99,,2013-05-09 21:12:00,
2013-05-09 17:22:00,80.0,43.0,-100.00,SSE,160,4.0,9.0,27,0.00,,,-99.99,,2013-05-09 21:22:00,
2013-05-09 17:32:00,79.0,46.0,-100.00,SSW,205,7.0,10.0,30,0.00,,,-99.99,,2013-05-09 21:32:00,
2013-05-09 17:43:00,78.0,45.0,-100.00,SSW,210,7.0,9.0,30,0.00,,,-99.99,,2013-05-09 21:43:00,
2013-05-09 17:52:00,78.0,45.0,-100.00,SSW,210,7.0,9.0,30,0.00,,,-99.99,,2013-05-09 21:52:00,
2013-05-09 18:03:00,79.0,45.0,-100.00,South,180,7.0,11.0,30,0.00,,,-99.99,,2013-05-09 22:03:00,
2013-05-09 18:13:00,78.0,46.0,-100.00,SSW,200,7.0,10.0,32,0.00,,,-99.99,,2013-05-09 22:13:00,
2013-05-09 18:23:00,78.0,47.0,-100.00,South,190,6.0,9.0,33,0.00,,,-99.99,,2013-05-09 22:23:00,
2013-05-09 18:33:00,78.0,46.0,-100.00,South,190,9.0,12.0,32,0.00,,,-99.99,,2013-05-09 22:33:00,
2013-05-09 18:42:00,74.0,50.0,-100.00,SSW,210,19.0,25.0,42,0.00,,,-99.99,,2013-05-09 22:42:00,
2013-05-09 18:52:00,73.0,50.0,-100.00,SW,215,16.0,21.0,43,0.00,,,-99.99,,2013-05-09 22:52:00,
2013-05-09 19:02:00,73.0,51.0,-100.00,SSW,205,12.0,18.0,46,0.00,,,-99.99,,2013-05-09 23:02:00,
2013-05-09 19:12:00,73.0,51.0,-100.00,SSW,200,9.0,15.0,46,0.00,,,-99.99,,2013-05-09 23:12:00,
2013-05-09 19:22:00,72.0,50.0,-100.00,South,180,12.0,14.0,45,0.00,,,-99.99,,2013-05-09 23:22:00,
2013-05-09 19:32:00,69.0,56.0,-100.00,South,170,7.0,14.0,61,0.00,,,-99.99,,2013-05-09 23:32:00,
2013-05-09 19:42:00,69.0,56.0,-100.00,SSE,155,3.0,7.0,63,0.00,,,-99.99,,2013-05-09 23:42:00,
2013-05-09 19:52:00,68.0,58.0,-100.00,South,175,5.0,6.0,71,0.00,,,-99.99,,2013-05-09 23:52:00,
2013-05-09 20:01:00,69.0,55.0,-100.00,SSW,195,4.0,8.0,60,0.00,,,-99.99,,2013-05-10 00:01:00,
2013-05-09 20:11:00,69.0,53.0,-100.00,SW,220,5.0,7.0,56,0.00,,,-99.99,,2013-05-10 00:11:00,
2013-05-09 20:22:00,69.0,55.0,-100.00,SSW,210,6.0,10.0,59,0.00,,,-99.99,,2013-05-10 00:22:00,
2013-05-09 20:32:00,69.0,55.0,-100.00,SSW,210,5.0,12.0,60,0.00,,,-99.99,,2013-05-10 00:32:00,
2013-05-09 20:42:00,69.0,55.0,-100.00,SSW,210,5.0,12.0,60,0.00,,,-99.99,,2013-05-10 00:42:00,
2013-05-09 20:52:00,69.0,53.0,-100.00,SSW,210,7.0,11.0,56,0.00,,,-99.99,,2013-05-10 00:52:00,
2013-05-09 21:01:00,69.0,54.0,-100.00,SW,225,6.0,9.0,59,0.00,,,-99.99,,2013-05-10 01:01:00,
2013-05-09 21:11:00,69.0,54.0,-100.00,SW,230,6.0,10.0,59,0.00,,,-99.99,,2013-05-10 01:11:00,
2013-05-09 21:22:00,68.0,53.0,-100.00,SW,230,6.0,9.0,59,0.00,,,-99.99,,2013-05-10 01:22:00,
2013-05-09 21:32:00,68.0,53.0,-100.00,SW,225,4.0,9.0,58,0.00,,,-99.99,,2013-05-10 01:32:00,
2013-05-09 21:42:00,67.0,53.0,-100.00,SW,230,4.0,7.0,60,0.00,,,-99.99,,2013-05-10 01:42:00,
2013-05-09 21:52:00,67.0,53.0,-100.00,SW,220,4.0,6.0,60,0.00,,,-99.99,,2013-05-10 01:52:00,
2013-05-09 22:02:00,67.0,54.0,-100.00,SSW,205,4.0,6.0,63,0.00,,,-99.99,,2013-05-10 02:02:00,
2013-05-09 22:11:00,66.0,55.0,-100.00,SSW,195,4.0,9.0,66,0.00,,,-99.99,,2013-05-10 02:11:00,
2013-05-09 22:21:00,67.0,54.0,-100.00,South,180,4.0,7.0,63,0.00,,,-99.99,,2013-05-10 02:21:00,
2013-05-09 22:32:00,67.0,54.0,-100.00,South,175,4.0,5.0,63,0.00,,,-99.99,,2013-05-10 02:32:00,
2013-05-09 22:42:00,66.0,56.0,-100.00,SE,130,2.0,5.0,71,0.55,,,-99.99,,2013-05-10 02:42:00,
2013-05-09 22:52:00,64.0,59.0,-100.00,SSE,160,3.0,6.0,81,0.55,,,-99.99,,2013-05-10 02:52:00,
2013-05-09 23:01:00,63.0,60.0,-100.00,SSE,155,3.0,4.0,88,0.00,,,-99.99,,2013-05-10 03:01:00,
2013-05-09 23:11:00,63.0,60.0,-100.00,SE,145,4.0,7.0,90,0.00,,,-99.99,,2013-05-10 03:11:00,
2013-05-09 23:22:00,62.0,60.0,-100.00,SSE,155,3.0,4.0,92,0.00,,,-99.99,,2013-05-10 03:22:00,
2013-05-09 23:33:00,62.0,61.0,-100.00,South,175,1.0,4.0,95,0.55,,,-99.99,,2013-05-10 03:33:00,
2013-05-09 23:43:00,62.0,61.0,-100.00,SE,145,2.0,4.0,97,0.00,,,-99.99,,2013-05-10 03:43:00,
2013-05-09 23:53:00,62.0,61.0,-100.00,SSE,155,0.0,4.0,97,0.00,,,-99.99,,2013-05-10 03:53:00,